Terug naar catalogus

COSMOS 367

ActiefMilitairLEO
NORAD 4564·PAYLOAD·🇷🇺 Russia

Gelanceerd Oct 3, 1970 vanaf Baikonur Cosmodrome

Loading…

Volgende Passages (komende 24 uur)

TLE

VersSource: Space-Track

Epoch: Sep 14, 2026, 04:39 UTC

1 04564U 70079A   26257.19377189 -.00000063  00000-0  21433-4 0  9996
2 04564  65.2778 193.0861 0054565  26.2717 334.1092 13.78569553815383

Volg COSMOS 367 in realtime met AllMySat

Download on the App Store